GPS BIII-2 (PRN 18)

Last updated on Sun Nov 16 2025 00:04:22 GMT+0000 (Coordinated Universal Time)

1 44506U 19056A 25319.49963859 -.00000084 00000+0 00000+0 0 9994 2 44506 55.7305 339.6343 0057675 197.9264 333.6006 2.00565547 45784
UTC large
Height (km)
Speed (km/s)
/
Latitude / Longitude
Inclination (degrees)
Orbital Period (minutes)
Azimuth
Elevation
Range (km)
Doppler Factor

Next 0 passes for location: London (51.5072 / 0.1276)

Sorry there are no passes over London.